Погода в Карлскруне

Швеция     56°09′40″N   15°35′12″E
темп.,
°C
ветер,
м/с
пор.,
м/с
влажн.,
%
обл.,
%
осадки,
мм/ч
давл.,
гПа
погр.,
м
1 июля, пт
пт123:00+16вюв1292100 0.6 101592
02:00+16ссв239572 1.1 101494
05:00+16всв129162 0.0 101346
08:00+20в11760 0.0 1013349
11:00+24ю226116 0.0 1014760
14:00+24ю335920 0.0 1013674
17:00+24ююв236117 0.0 1012478
20:00+20ююв1391100 0.7 1013186
2 июля, сб
сб223:00+19сз1299100 6.9 1013154
02:00+17ююз229887 7.4 101458
05:00+15зсз61193100 0.1 1015619
08:00+14зсз61191100 0.4 1018676
11:00+20з58510 0.0 10191357
14:00+22юз68493 0.0 10201589
17:00+23юз57460 0.0 10201386
20:00+20юз59659 0.0 1021394
3 июля, вс
вс323:00+16з37815 0.0 1022144
02:00+13з22875 0.0 102245
05:00+13з01835 0.0 102223
08:00+19ююз24617 0.0 1022354
11:00+21ю46515 0.0 1021845
14:00+22ю46500 0.0 1020965
17:00+21ююв464925 0.0 1019732
20:00+19юв37620 0.0 1018336
4 июля, пн
пн423:00+16юв398287 0.0 1016203
02:00+15с2396100 1.1 101688
05:00+16ююв2596100 1.3 1015158
08:00+17з358917 2.4 1015399
11:00+21юз46545 0.3 10151499
14:00+22юз68455 0.3 10151690
17:00+21юз895441 0.0 10151572
20:00+18зюз59645 0.0 10161002
5 июля, вт
вт523:00+15з410830 0.0 1016602
02:00+13зюз411840 0.0 1017534
05:00+12зюз4108518 0.0 1017536
08:00+15зюз696932 0.0 10171052
11:00+18зюз695683 0.1 10171749
14:00+20зюз6105078 0.9 10161986
17:00+18з5105981 0.4 10161406
20:00+17з611629 0.4 10161495